Zurück zum Katalog

COSMOS 2087

AktivMilitärHEO
NORAD 20707·PAYLOAD·🇷🇺 Russia

Gestartet Jul 25, 1990 von Plesetsk Cosmodrome

Loading…

Nächste Überflüge (nächste 24 Stunden)

TLE

AktuellSource: Space-Track

Epoche: Sep 13, 2026, 04:23 UTC

1 20707U 90064A   26256.18326792 -.00000789  00000-0  00000-0 0  9999
2 20707  67.7578 179.6866 6315740  22.8930 355.8704  2.00388651264592

Verfolge COSMOS 2087 in Echtzeit mit AllMySat

Download on the App Store